User: anonymous   Login
Location: Saint-Maurice-d�Ard�che
(44.5216°N, 4.4002°E)
Time: 00:54:41
(UTC+00:00)
Language:

STARLINK-1123 - Orbit

View from above orbital plane
View from above orbital plane
View from above satellite
View from above satellite

Ground track
Ground track

The orbit data is extracted from the following two-line orbital elements,

1 44930U 20001S   20188.83334491 -.00006283  00000-0 -41234-3 0  9995
2 44930  53.0004 287.5445 0001386 106.0687  99.6434 15.05587819 27581
Epoch (UTC): 06 July 2020 20:00:01
Eccentricity: 0.0001386
inclination: 53.0004°
perigee height: 549 km
apogee height: 550 km
right ascension of ascending node: 287.5445°
argument of perigee: 106.0687°
revolutions per day: 15.05587819
mean anomaly at epoch: 99.6434°
orbit number at epoch: 2758

The dashed part of the orbit path shows where the satellite is in the earth's shadow,  

DLR